Location: Hurstbourne Priors
(51.2000°N, 1.3667°W)
Time: 23:20:31
(UTC+00:00)

Cosmos 2369 - Pass Details

Date: 09 April 2020
Orbit: 840 x 855 km, 71.0° (Epoch: 29 May)

Event Time Altitude Azimuth Distance (km) Brightness Sun altitude
Rises 21:04:49 0° 330° (NNW) 3,407 8.2 -19.1°
Reaches altitude 10° 21:07:18 10° 333° (NNW) 2,469 7.2 -19.3°
Maximum altitude 21:12:56 67° 56° (ENE) 913 3.8 -20.0°
Enters shadow 21:14:59 39° 125° (SE) 1,237 4.0 -20.2°
